Regional Weather Roundup
Issued by NWS

Home | Current Version | Previous Version | Graphics & Text | Print | Product List | Glossary On
Versions: 1 2 3 4 5 6 7 8 9 10 11 12 13 14 15 16 17 18 19 20 21 22 23 24 25 26 27 28 29 30 31 32 33 34 35 36 37 38 39 40 41 42 43 44 45 46 47 48 49 50
000
ASUS43 KDMX 171107
RWRIA

WEATHER ROUNDUP FOR IOWA
NATIONAL WEATHER SERVICE DES MOINES IA
600 AM CDT WED SEP 17 2014

NOTE: "FAIR" INDICATES FEW OR NO CLOUDS BELOW 12,000 FEET WITH NO
SIGNIFICANT WEATHER AND/OR OBSTRUCTIONS TO VISIBILITY.

* - THESE STATIONS ARE NOT NWS STATIONS...THUS NOT UNDER NWS
QUALITY CONTROL.  THEY ALSO DO NOT REPORT WEATHER SUCH
AS PRECIPITATION OR FOG.

IAZ001>003-012>014-020>022-031>034-043>046-171200-
   NORTHWEST IOWA

CITY           SKY/WX    TMP DP  RH WIND       PRES   REMARKS
CARROLL *      CLOUDY    54  52  94 CALM      29.95F
CHEROKEE *     MOCLDY    50  50 100 S3        29.94F
DENISON *      CLOUDY    55  54  94 CALM      29.93F
LE MARS *        N/A     48  48 100 CALM      29.93F
ORANGE CITY *  CLEAR     54  48  82 S5        29.93F
SHELDON *      CLEAR     48  48 100 SE6       29.92F
SIOUX CITY     MOCLDY    55  52  89 SE6       29.93F
SPENCER        PTCLDY    51  47  86 SE6       29.95F
STORM LAKE *   MOCLDY    50  50 100 S8        29.95S
$$

IAZ055>058-069>071-079>083-090>094-171200-
   SOUTHWEST IOWA

CITY           SKY/WX    TMP DP  RH WIND       PRES   REMARKS
ATLANTIC *     CLOUDY    57  54  88 CALM      29.94F
AUDUBON *      CLOUDY    55  48  76 CALM      29.96F
CLARINDA *     CLOUDY    59  55  88 CALM      29.96S
COUNCIL BLFS * PTCLDY    55  55 100 SE6       29.92F
CRESTON *      CLOUDY    55  54  94 SE6       29.96F
HARLAN  *      CLOUDY    57  55  94 CALM      29.98F
LAMONI         LGT RAIN  57  53  86 SE3       29.96S
SHENANDOAH *     N/A     59  55  88 E3        29.94F
$$

IAZ047>049-059>061-072>074-084-171200-
   CENTRAL IOWA

CITY           SKY/WX    TMP DP  RH WIND       PRES   REMARKS
AMES           CLOUDY    51  50  96 CALM      29.98S
ANKENY *       CLOUDY    54  52  94 CALM      29.97F
CHARITON *     CLOUDY    55  54  94 E5        29.97F
DES MOINES     CLOUDY    58  50  75 SE7       29.97F
GRINNELL*      CLOUDY    50  48  93 CALM      30.00F
KNOXVILLE *    CLOUDY    54  50  87 E6        29.97S
MARSHALLTOWN   PTCLDY    48  46  93 SE5       29.98F
PELLA *        MOCLDY    54  52  94 SE3       30.00S
PERRY *        CLOUDY    54  52  94 CALM      29.97S
$$

IAZ004>006-015-016-023>025-035-036-171200-
   NORTH CENTRAL IOWA

CITY           SKY/WX    TMP DP  RH WIND       PRES   REMARKS
ALGONA *       PTCLDY    48  46  93 S6        29.96F
CLARION *        N/A     48  46  93 SE5       29.98S
ESTHERVILLE    CLEAR     47  46  97 S6        29.95F
FORT DODGE *   PTCLDY    46  43  87 E5        29.97S
MASON CITY     CLOUDY    49  48  97 S3        30.00S
FOREST CITY *  CLOUDY    50  50 100 SE3       29.98S
IOWA FALLS *     N/A     46  45  93 E3        30.00S
$$

IAZ007>011-017>019-026>030-037>042-050>054-066-171200-
   NORTHEAST IOWA

CITY           SKY/WX    TMP DP  RH WIND       PRES   REMARKS
CEDAR RAPIDS   CLEAR     47  46  97 CALM      30.01S
CHARLES CITY * CLOUDY    48  46  93 S5        30.00S
CLINTON *      CLEAR     43  39  87 E7        30.06S
DECORAH *      MOCLDY    48  45  87 CALM      29.99F
DUBUQUE        PTCLDY    47  43  86 S3        30.03F
MONTICELLO *   MOCLDY    43  43 100 CALM      30.02S
OELWEIN *      CLOUDY    50  48  93 SE3       30.01F
WATERLOO       PTCLDY    47  45  93 E3        30.00S
$$

IAZ064-065-067-068-078-171200-
   EAST CENTRAL IOWA

CITY           SKY/WX    TMP DP  RH WIND       PRES   REMARKS
DAVENPORT      MOCLDY    46  42  86 SE6       30.03F
IOWA CITY      PTCLDY    46  44  93 CALM      30.03F
MT. PLEASANT * CLOUDY    50  50 100 SE3       30.02F
MUSCATINE *    CLEAR     46  45  93 CALM      30.03S
QUAD CITIES    CLOUDY    48  45  89 E3        30.03F
$$

IAZ062-063-075>077-085>089-095>099-171200-
   SOUTHEAST IOWA

CITY           SKY/WX    TMP DP  RH WIND       PRES   REMARKS
BURLINGTON     MOCLDY    51  50  96 CALM      30.02S
FAIRFIELD *    CLOUDY    54  50  87 SE7       30.00F
FORT MADISON * CLOUDY    55  52  88 CALM      30.03S
KEOKUK *       CLOUDY    55  52  88 CALM      30.01F
OSKALOOSA *    CLOUDY    52  50  93 CALM      30.00S
CENTERVILLE *  CLOUDY    54  54 100 E3        29.99F
OTTUMWA        CLOUDY    54  51  90 SE7       29.99F
WASHINGTON *   CLOUDY    48  48 100 SE5       30.01F
$$

ABBREVIATIONS USED IN REMARKS
   TC - TEMPERATURES IN CELSIUS
  WCI - WIND CHILL INDEX
   HX - HEAT INDEX
  VSB - VISIBILITY
$$




USA.gov is the U.S. government's official web portal to all federal, state and local government web resources and services.